Time,TemperatureF,DewpointF,PressureIn,WindDirection,WindDirectionDegrees,WindSpeedMPH,WindSpeedGustMPH,Humidity,HourlyPrecipIn,Conditions,Clouds,dailyrainin,SoftwareType,DateUTC
2013-05-07 00:02:00,54.0,39.0,30.01,North,358,0.0,1.0,57,0.00,,,0.00,,2013-05-07 05:02:00,
2013-05-07 00:12:00,54.0,39.0,30.01,North,358,0.0,1.0,57,0.00,,,0.00,,2013-05-07 05:12:00,
2013-05-07 00:22:00,53.0,39.0,30.01,NNE,25,0.0,1.0,59,0.00,,,0.00,,2013-05-07 05:22:00,
2013-05-07 00:32:00,53.0,40.0,30.01,East,94,0.0,1.0,62,0.00,,,0.00,,2013-05-07 05:32:00,
2013-05-07 00:42:00,53.0,40.0,30.01,East,94,0.0,1.0,62,0.00,,,0.00,,2013-05-07 05:42:00,
2013-05-07 00:52:00,51.0,38.0,30.01,East,98,0.0,1.0,61,0.00,,,0.00,,2013-05-07 05:52:00,
2013-05-07 01:02:00,51.0,40.0,30.02,East,98,0.0,1.0,65,0.00,,,0.00,,2013-05-07 06:02:00,
2013-05-07 01:12:00,51.0,40.0,30.02,East,98,0.0,1.0,65,0.00,,,0.00,,2013-05-07 06:12:00,
2013-05-07 01:22:00,48.0,38.0,30.02,NNW,332,0.0,1.0,69,0.00,,,0.00,,2013-05-07 06:22:00,
2013-05-07 01:32:00,48.0,38.0,30.02,NNW,336,0.0,1.0,69,0.00,,,0.00,,2013-05-07 06:32:00,
2013-05-07 01:42:00,48.0,38.0,30.02,NNW,336,0.0,1.0,69,0.00,,,0.00,,2013-05-07 06:42:00,
2013-05-07 01:52:00,46.0,37.0,30.02,NNW,330,0.0,0.0,72,0.00,,,0.00,,2013-05-07 06:52:00,
2013-05-07 02:02:00,45.0,37.0,30.02,NNW,336,0.0,1.0,74,0.00,,,0.00,,2013-05-07 07:02:00,
2013-05-07 02:11:00,45.0,37.0,30.02,NNW,336,0.0,1.0,74,0.00,,,0.00,,2013-05-07 07:11:00,
2013-05-07 02:22:00,44.0,37.0,30.02,NNW,335,0.0,1.0,75,0.00,,,0.00,,2013-05-07 07:22:00,
2013-05-07 02:31:00,43.0,37.0,30.02,NW,326,0.0,0.0,78,0.00,,,0.00,,2013-05-07 07:31:00,
2013-05-07 02:42:00,43.0,37.0,30.02,NW,326,0.0,0.0,78,0.00,,,0.00,,2013-05-07 07:42:00,
2013-05-07 02:52:00,42.0,36.0,30.02,NW,326,0.0,0.0,80,0.00,,,0.00,,2013-05-07 07:52:00,
2013-05-07 03:02:00,41.0,36.0,30.02,NW,316,0.0,0.0,83,0.00,,,0.00,,2013-05-07 08:02:00,
2013-05-07 03:11:00,41.0,36.0,30.02,NW,316,0.0,0.0,83,0.00,,,0.00,,2013-05-07 08:11:00,
2013-05-07 03:21:00,40.0,36.0,30.01,NW,304,0.0,0.0,85,0.00,,,0.00,,2013-05-07 08:21:00,
2013-05-07 03:31:00,40.0,36.0,30.02,WNW,297,0.0,0.0,85,0.00,,,0.00,,2013-05-07 08:31:00,
2013-05-07 03:42:00,40.0,36.0,30.02,WNW,297,0.0,0.0,85,0.00,,,0.00,,2013-05-07 08:42:00,
2013-05-07 03:52:00,40.0,36.0,30.01,WNW,300,0.0,0.0,87,0.00,,,0.00,,2013-05-07 08:52:00,
2013-05-07 04:01:00,40.0,36.0,30.01,WNW,295,0.0,0.0,86,0.00,,,0.00,,2013-05-07 09:01:00,
2013-05-07 04:11:00,40.0,36.0,30.01,WNW,295,0.0,0.0,86,0.00,,,0.00,,2013-05-07 09:11:00,
2013-05-07 04:22:00,40.0,36.0,30.01,WNW,282,0.0,0.0,85,0.00,,,0.00,,2013-05-07 09:22:00,
2013-05-07 04:33:00,39.0,36.0,30.01,WSW,249,0.0,1.0,88,0.00,,,0.00,,2013-05-07 09:33:00,
2013-05-07 04:42:00,39.0,36.0,30.01,WSW,249,0.0,1.0,88,0.00,,,0.00,,2013-05-07 09:42:00,
2013-05-07 04:52:00,39.0,35.0,30.01,WSW,249,0.0,0.0,87,0.00,,,0.00,,2013-05-07 09:52:00,
2013-05-07 05:03:00,38.0,35.0,30.02,WSW,249,0.0,0.0,88,0.00,,,0.00,,2013-05-07 10:03:00,
2013-05-07 05:12:00,38.0,35.0,30.02,WSW,249,0.0,0.0,88,0.00,,,0.00,,2013-05-07 10:12:00,
2013-05-07 05:23:00,38.0,35.0,30.02,WSW,243,0.0,0.0,90,0.00,,,0.00,,2013-05-07 10:23:00,
2013-05-07 05:32:00,38.0,35.0,30.02,WSW,240,0.0,0.0,90,0.00,,,0.00,,2013-05-07 10:32:00,
2013-05-07 05:42:00,38.0,35.0,30.02,WSW,240,0.0,0.0,90,0.00,,,0.00,,2013-05-07 10:42:00,
2013-05-07 05:52:00,37.0,34.0,30.02,WSW,240,0.0,0.0,90,0.00,,,0.00,,2013-05-07 10:52:00,
2013-05-07 06:02:00,39.0,36.0,30.03,SE,131,0.0,1.0,90,0.00,,,0.00,,2013-05-07 11:02:00,
2013-05-07 06:12:00,39.0,36.0,30.03,SE,131,0.0,1.0,90,0.00,,,0.00,,2013-05-07 11:12:00,
2013-05-07 06:22:00,39.0,36.0,30.03,SSW,204,0.0,0.0,88,0.00,,,0.00,,2013-05-07 11:22:00,
2013-05-07 06:32:00,40.0,36.0,30.03,WSW,243,0.0,1.0,85,0.00,,,0.00,,2013-05-07 11:32:00,
2013-05-07 06:42:00,40.0,36.0,30.03,WSW,243,0.0,1.0,85,0.00,,,0.00,,2013-05-07 11:42:00,
2013-05-07 06:52:00,42.0,37.0,30.04,SE,129,0.0,1.0,82,0.00,,,0.00,,2013-05-07 11:52:00,
2013-05-07 07:02:00,44.0,38.0,30.04,SE,143,0.0,0.0,79,0.00,,,0.00,,2013-05-07 12:02:00,
2013-05-07 07:11:00,44.0,38.0,30.04,SE,143,0.0,0.0,79,0.00,,,0.00,,2013-05-07 12:11:00,
2013-05-07 07:21:00,46.0,39.0,30.05,SE,145,0.0,1.0,76,0.00,,,0.00,,2013-05-07 12:21:00,
2013-05-07 07:32:00,49.0,41.0,30.05,SSE,148,0.0,1.0,73,0.00,,,0.00,,2013-05-07 12:32:00,
2013-05-07 07:42:00,49.0,41.0,30.05,SSE,148,0.0,1.0,73,0.00,,,0.00,,2013-05-07 12:42:00,
2013-05-07 07:52:00,52.0,43.0,30.05,NNW,333,1.0,2.0,70,0.00,,,0.00,,2013-05-07 12:52:00,
2013-05-07 08:02:00,54.0,42.0,30.06,NW,315,1.0,4.0,63,0.00,,,0.00,,2013-05-07 13:02:00,
2013-05-07 08:11:00,54.0,42.0,30.06,NW,315,1.0,4.0,63,0.00,,,0.00,,2013-05-07 13:11:00,
2013-05-07 08:21:00,57.0,42.0,30.06,NNW,340,0.0,3.0,58,0.00,,,0.00,,2013-05-07 13:21:00,
2013-05-07 08:32:00,59.0,42.0,30.06,NNW,335,0.0,2.0,53,0.00,,,0.00,,2013-05-07 13:32:00,
2013-05-07 08:42:00,59.0,42.0,30.06,NNW,335,0.0,2.0,53,0.00,,,0.00,,2013-05-07 13:42:00,
2013-05-07 08:52:00,62.0,40.0,30.06,NW,326,1.0,3.0,45,0.00,,,0.00,,2013-05-07 13:52:00,
2013-05-07 09:02:00,63.0,40.0,30.06,NNE,19,1.0,4.0,43,0.00,,,0.00,,2013-05-07 14:02:00,
2013-05-07 09:11:00,63.0,40.0,30.06,NNE,19,1.0,4.0,43,0.00,,,0.00,,2013-05-07 14:11:00,
2013-05-07 09:21:00,66.0,39.0,30.06,NE,40,0.0,3.0,37,0.00,,,0.00,,2013-05-07 14:21:00,
2013-05-07 09:32:00,68.0,40.0,30.06,East,89,1.0,3.0,36,0.00,,,0.00,,2013-05-07 14:32:00,
2013-05-07 09:42:00,68.0,40.0,30.06,East,89,1.0,3.0,36,0.00,,,0.00,,2013-05-07 14:42:00,
2013-05-07 15:32:00,77.0,30.0,29.98,ESE,115,9.0,13.0,18,0.00,,,0.00,,2013-05-07 20:32:00,
2013-05-07 15:42:00,77.0,30.0,29.98,ESE,115,9.0,13.0,18,0.00,,,0.00,,2013-05-07 20:42:00,
2013-05-07 15:51:00,77.0,32.0,29.97,ESE,104,4.0,16.0,19,0.00,,,0.00,,2013-05-07 20:51:00,
2013-05-07 16:01:00,77.0,32.0,29.97,SW,232,3.0,16.0,19,0.00,,,0.00,,2013-05-07 21:01:00,
2013-05-07 16:11:00,77.0,32.0,29.97,SW,232,3.0,16.0,19,0.00,,,0.00,,2013-05-07 21:11:00,
2013-05-07 16:22:00,77.0,32.0,29.96,SSE,156,9.0,18.0,19,0.00,,,0.00,,2013-05-07 21:22:00,
2013-05-07 16:32:00,77.0,30.0,29.96,East,100,5.0,17.0,18,0.00,,,0.00,,2013-05-07 21:32:00,
2013-05-07 16:42:00,77.0,30.0,29.96,East,100,5.0,17.0,18,0.00,,,0.00,,2013-05-07 21:42:00,
2013-05-07 16:52:00,77.0,32.0,29.96,ESE,110,9.0,21.0,19,0.00,,,0.00,,2013-05-07 21:52:00,
2013-05-07 17:02:00,76.0,31.0,29.96,SE,133,13.0,19.0,19,0.00,,,0.00,,2013-05-07 22:02:00,
2013-05-07 17:13:00,76.0,31.0,29.96,SE,133,13.0,19.0,19,0.00,,,0.00,,2013-05-07 22:13:00,
2013-05-07 17:22:00,77.0,32.0,29.96,South,172,6.0,13.0,19,0.00,,,0.00,,2013-05-07 22:22:00,
2013-05-07 17:33:00,77.0,32.0,29.96,SE,132,4.0,10.0,19,0.00,,,0.00,,2013-05-07 22:33:00,
2013-05-07 17:42:00,77.0,32.0,29.96,SE,132,4.0,10.0,19,0.00,,,0.00,,2013-05-07 22:42:00,
2013-05-07 17:52:00,76.0,31.0,29.96,ESE,103,8.0,16.0,19,0.00,,,0.00,,2013-05-07 22:52:00,
2013-05-07 18:02:00,77.0,33.0,29.95,ESE,117,5.0,18.0,20,0.00,,,0.00,,2013-05-07 23:02:00,
2013-05-07 18:12:00,77.0,33.0,29.95,ESE,117,5.0,18.0,20,0.00,,,0.00,,2013-05-07 23:12:00,
2013-05-07 18:21:00,76.0,31.0,29.95,ESE,112,5.0,18.0,19,0.00,,,0.00,,2013-05-07 23:21:00,
2013-05-07 18:32:00,76.0,31.0,29.96,SSW,201,3.0,13.0,19,0.00,,,0.00,,2013-05-07 23:32:00,
2013-05-07 18:42:00,76.0,31.0,29.96,SSW,201,3.0,13.0,19,0.00,,,0.00,,2013-05-07 23:42:00,
2013-05-07 18:52:00,76.0,31.0,29.95,ESE,106,3.0,10.0,19,0.00,,,0.00,,2013-05-07 23:52:00,
2013-05-07 19:02:00,75.0,31.0,29.95,SSW,198,6.0,11.0,20,0.00,,,0.00,,2013-05-08 00:02:00,
2013-05-07 19:11:00,75.0,31.0,29.95,SSW,198,6.0,11.0,20,0.00,,,0.00,,2013-05-08 00:11:00,
2013-05-07 19:21:00,74.0,30.0,29.96,SSE,150,5.0,15.0,20,0.00,,,0.00,,2013-05-08 00:21:00,
2013-05-07 19:32:00,74.0,32.0,29.96,SE,129,4.0,15.0,21,0.00,,,0.00,,2013-05-08 00:32:00,
2013-05-07 19:42:00,74.0,32.0,29.96,SE,129,4.0,15.0,21,0.00,,,0.00,,2013-05-08 00:42:00,
2013-05-07 19:51:00,73.0,31.0,29.96,SE,124,5.0,14.0,21,0.00,,,0.00,,2013-05-08 00:51:00,
2013-05-07 20:02:00,72.0,32.0,29.96,SE,124,6.0,11.0,23,0.00,,,0.00,,2013-05-08 01:02:00,
2013-05-07 20:11:00,72.0,32.0,29.96,SE,124,6.0,11.0,23,0.00,,,0.00,,2013-05-08 01:11:00,
2013-05-07 20:21:00,70.0,32.0,29.96,East,79,5.0,10.0,24,0.00,,,0.00,,2013-05-08 01:21:00,
2013-05-07 20:32:00,69.0,33.0,29.96,ESE,106,3.0,5.0,26,0.00,,,0.00,,2013-05-08 01:32:00,
2013-05-07 20:42:00,69.0,33.0,29.96,ESE,106,3.0,5.0,26,0.00,,,0.00,,2013-05-08 01:42:00,
2013-05-07 20:52:00,68.0,33.0,29.96,ESE,115,2.0,4.0,27,0.00,,,0.00,,2013-05-08 01:52:00,
2013-05-07 21:01:00,67.0,34.0,29.96,SE,138,3.0,7.0,29,0.00,,,0.00,,2013-05-08 02:01:00,
2013-05-07 21:12:00,67.0,34.0,29.96,SE,138,3.0,7.0,29,0.00,,,0.00,,2013-05-08 02:12:00,
2013-05-07 21:22:00,66.0,34.0,29.97,SE,141,2.0,5.0,31,0.00,,,0.00,,2013-05-08 02:22:00,
2013-05-07 21:32:00,65.0,35.0,29.97,SE,131,1.0,4.0,33,0.00,,,0.00,,2013-05-08 02:32:00,
2013-05-07 21:42:00,65.0,35.0,29.97,SE,131,1.0,4.0,33,0.00,,,0.00,,2013-05-08 02:42:00,
2013-05-07 21:52:00,64.0,37.0,29.97,SE,124,0.0,3.0,36,0.00,,,0.00,,2013-05-08 02:52:00,
2013-05-07 22:02:00,63.0,37.0,29.97,East,83,0.0,2.0,38,0.00,,,0.00,,2013-05-08 03:02:00,
2013-05-07 22:11:00,63.0,37.0,29.97,East,83,0.0,2.0,38,0.00,,,0.00,,2013-05-08 03:11:00,
2013-05-07 22:21:00,61.0,36.0,29.97,ESE,111,0.0,1.0,40,0.00,,,0.00,,2013-05-08 03:21:00,
2013-05-07 22:32:00,61.0,38.0,29.97,ESE,118,0.0,2.0,43,0.00,,,0.00,,2013-05-08 03:32:00,
2013-05-07 22:43:00,61.0,38.0,29.97,ESE,118,0.0,2.0,43,0.00,,,0.00,,2013-05-08 03:43:00,
2013-05-07 22:52:00,59.0,38.0,29.98,SE,145,1.0,2.0,45,0.00,,,0.00,,2013-05-08 03:52:00,
2013-05-07 23:02:00,58.0,37.0,29.98,SSE,148,0.0,2.0,45,0.00,,,0.00,,2013-05-08 04:02:00,
2013-05-07 23:13:00,58.0,37.0,29.98,SSE,148,0.0,2.0,45,0.00,,,0.00,,2013-05-08 04:13:00,
2013-05-07 23:23:00,57.0,37.0,29.98,West,259,1.0,2.0,47,0.00,,,0.00,,2013-05-08 04:23:00,
2013-05-07 23:33:00,57.0,36.0,29.98,SSW,201,0.0,1.0,46,0.00,,,0.00,,2013-05-08 04:33:00,
2013-05-07 23:42:00,57.0,36.0,29.98,SSW,201,0.0,1.0,46,0.00,,,0.00,,2013-05-08 04:42:00,
2013-05-07 23:52:00,57.0,36.0,29.98,SSE,165,1.0,3.0,45,0.00,,,0.00,,2013-05-08 04:52:00,